KITSAT 1 - Orbit

View from above orbital plane
View from above orbital plane
View from above satellite
View from above satellite

Ground track
Ground track

The orbit data is extracted from the following two-line orbital elements,

1 22077U 92052B   13169.14430094 -.00000106  00000-0 -17592-3 0  5162
2 22077 066.0845 144.7449 0013592 303.4083 136.5467 12.86480488979571
Epoch (UTC): 18 June 2013 03:27:47
Eccentricity: 0.0013592
inclination: 66.0845°
perigee height: 1305 km
apogee height: 1326 km
right ascension of ascending node: 144.7449°
argument of perigee: 303.4083°
revolutions per day: 12.86480488
mean anomaly at epoch: 136.5467°
orbit number at epoch: 97957

The dashed part of the orbit path shows where the satellite is in the earth's shadow,  

Developed and maintained by Chris Peat, Heavens-Above GmbH. Please read the updated FAQ before sending e-mail. Imprint. DLR